Glens Falls, NY

7:25 AM EST on November 15, 2019 (GMT -0500)
Bennett Memorial

Weather History for KGFL - September, 2019

Change the Weather History Date:

Sunday, September 29, 2019

  Actual Average Record
Temperature  
Mean Temperature 56 °F 53 °F  
Max Temperature 68 °F 65 °F 84 °F (1921)
Min Temperature 43 °F 41 °F 25 °F (2000)
Degree Days  
Heating Degree Days 9 12  
Month to date heating degree days 180 207  
Since 1 July heating degree days 208 273  
Cooling Degree Days 0 0  
Month to date cooling degree days 21 23  
Year to date cooling degree days 416 350  
Growing Degree Days 7 (Base 50)    
Moisture  
Dew Point 45 °F    
Average Humidity 61    
Maximum Humidity 86    
Minimum Humidity 36    
Precipitation  
Precipitation 0.00 in 0.12 in 1.30 in (2015)
Month to date precipitation 2.06 3.26  
Year to date precipitation 30.85 29.07  
Sea Level Pressure  
Sea Level Pressure 30.31 in    
Wind  
Wind Speed 8 mph (NE)    
Max Wind Speed 18 mph    
Max Gust Speed 24 mph    
Visibility 10 miles    
Events      
T = Trace of Precipitation, MM = Missing Value Source: NWS Daily Summary

Daily Weather History Graph

Daily Weather History Graph

Search for Another Location

Airport or City:

Astronomy

Sep. 29, 2019 Rise Set
Actual Time 6:49 AM EDT 6:39 PM EDT
Civil Twilight 6:20 AM EDT 7:07 PM EDT
Nautical Twilight 5:47 AM EDT 7:41 PM EDT
Astronomical Twilight 5:13 AM EDT 8:14 PM EDT
Moon 7:36 AM EDT (9/29) 7:37 PM EDT (9/29)
Length of Visible Light 12h 47m
Length of Day
11h 50m
New Moon, 1% of the Moon is Illuminated
Sep 29
New Moon
Oct 5
First Quarter
Oct 13
Full
Oct 21
Last Quarter
Oct 27
New

Hourly Weather History & Observations

Time (EDT) Temp. Windchill Dew Point Humidity Pressure Visibility Wind Dir Wind Speed Gust Speed Precip Events Conditions
12:53 AM 68.0 °F - 57.9 °F 70% 30.11 in 10.0 mi North 13.8 mph - N/A   Overcast
1:53 AM 66.0 °F - 57.0 °F 73% 30.14 in 10.0 mi North 11.5 mph - N/A   Overcast
2:53 AM 64.0 °F - 57.9 °F 80% 30.15 in 10.0 mi NE 5.8 mph - N/A   Overcast
3:53 AM 62.1 °F - 55.9 °F 80% 30.17 in 10.0 mi NE 3.5 mph - N/A   Partly Cloudy
4:53 AM 57.0 °F - 53.1 °F 87% 30.20 in 10.0 mi NNW 5.8 mph - N/A   Clear
5:53 AM 60.1 °F - 54.0 °F 80% 30.23 in 10.0 mi ENE 8.1 mph - N/A   Overcast
6:53 AM 57.9 °F - 50.0 °F 75% 30.27 in 10.0 mi NE 17.3 mph - N/A   Overcast
7:15 AM 57.0 °F - 48.9 °F 74% 30.28 in 10.0 mi NE 17.3 mph 24.2 mph N/A   Overcast
7:23 AM 57.0 °F - 48.9 °F 74% 30.29 in 10.0 mi NE 15.0 mph 23.0 mph N/A   Overcast
7:30 AM 57.0 °F - 48.9 °F 74% 30.29 in 10.0 mi NE 15.0 mph - N/A   Overcast
7:53 AM 57.0 °F - 48.9 °F 74% 30.30 in 10.0 mi NE 15.0 mph - N/A   Overcast
8:14 AM 57.0 °F - 48.0 °F 72% 30.31 in 10.0 mi NE 12.7 mph - N/A   Overcast
8:35 AM 57.9 °F - 48.0 °F 70% 30.32 in 10.0 mi NNE 11.5 mph - N/A   Mostly Cloudy
8:44 AM 55.9 °F - 46.9 °F 72% 30.33 in 10.0 mi NNE 15.0 mph 21.9 mph N/A   Overcast
8:53 AM 55.9 °F - 46.9 °F 72% 30.34 in 10.0 mi NNE 12.7 mph - N/A   Overcast
9:53 AM 57.0 °F - 44.1 °F 62% 30.38 in 10.0 mi NNE 11.5 mph - N/A   Scattered Clouds
10:53 AM 55.9 °F - 42.1 °F 60% 30.38 in 10.0 mi NNE 15.0 mph - N/A   Mostly Cloudy
11:53 AM 57.0 °F - 42.1 °F 57% 30.39 in 10.0 mi ENE 13.8 mph - N/A   Clear
12:53 PM 57.9 °F - 41.0 °F 53% 30.38 in 10.0 mi ENE 10.4 mph - N/A   Clear
1:53 PM 61.0 °F - 39.9 °F 46% 30.36 in 10.0 mi NE 10.4 mph - N/A   Clear
2:53 PM 63.0 °F - 39.0 °F 41% 30.36 in 10.0 mi NNE 9.2 mph - N/A   Clear
3:53 PM 62.1 °F - 35.1 °F 37% 30.35 in 10.0 mi ENE 13.8 mph - N/A   Clear
4:53 PM 59.0 °F - 34.0 °F 39% 30.33 in 10.0 mi ENE 13.8 mph - N/A   Clear
5:53 PM 57.0 °F - 36.0 °F 45% 30.34 in 10.0 mi ENE 6.9 mph - N/A   Clear
6:53 PM 53.1 °F - 37.9 °F 57% 30.36 in 10.0 mi NNE 5.8 mph - N/A   Clear
7:53 PM 46.0 °F - 39.9 °F 79% 30.38 in 10.0 mi Calm Calm - N/A   Clear
8:53 PM 46.0 °F 43.9 °F 39.9 °F 79% 30.39 in 10.0 mi North 4.6 mph - N/A   Clear
9:53 PM 46.0 °F - 39.9 °F 79% 30.39 in 10.0 mi Calm Calm - N/A   Clear
10:53 PM 46.0 °F - 41.0 °F 83% 30.40 in 10.0 mi Calm Calm - N/A   Clear
11:53 PM 48.0 °F - 39.0 °F 71% 30.40 in 10.0 mi NNE 4.6 mph - N/A   Clear